Weather History for Norfolk, NE

Change the Weather History Date:

Friday, October 18, 2013

  Actual Average Record
Temperature  
Mean Temperature 41 °F 50 °F  
Max Temperature 53 °F 63 °F 89 °F (2005)
Min Temperature 29 °F 38 °F 18 °F (1972)
Degree Days  
Heating Degree Days 24 15  
Month to date heating degree days 189 213  
Since 1 July heating degree days 234 355  
Cooling Degree Days 0 0  
Month to date cooling degree days 9 8  
Year to date cooling degree days 1005 914  
Moisture  
Dew Point 29 °F    
Average Humidity 64    
Maximum Humidity 92    
Minimum Humidity 35    
Precipitation  
Precipitation T in 0.07 in 1.62 in (1904)
Month to date precipitation 4.32 1.36  
Year to date precipitation 23.58 24.58  
Snow  
Snow 0.00 in 0.00 in - ()
Month to date snowfall 0.0 0.2  
Since 1 July snowfall 0.0 0.2  
Snow Depth 0.00 in    
Sea Level Pressure  
Sea Level Pressure 30.09 in    
Wind  
Wind Speed 8 mph (West)    
Max Wind Speed 15 mph    
Max Gust Speed 22 mph    
Visibility 10 miles    
Events      
T = Trace of Precipitation, MM = Missing Value Source: NWS Daily Summary

Daily Weather History Graph

Daily Weather History Graph

Search for Another Location

Airport:

Trip Planner

Search our weather history database for the weather conditions in past years. The results will help you decide how hot, cold, wet, or windy it might be!

Date:

Astronomy

Oct. 18, 2013 Rise Set
Actual Time 7:45 AM CDT 6:43 PM CDT
Civil Twilight 7:17 AM CDT 7:11 PM CDT
Nautical Twilight 6:45 AM CDT 7:43 PM CDT
Astronomical Twilight 6:12 AM CDT 8:15 PM CDT
Moon 6:33 PM CDT 7:22 AM CDT
Length of Visible Light 11h 53m
Length of Day
10h 57m
Full, 100% of the Moon is Illuminated
Oct 18
Full
Oct 18
Full
Oct 26
Last Quarter
Nov 3
New
Nov 9
First Quarter

Hourly Weather History & Observations

Time (CDT) Temp. Windchill Dew Point Humidity Pressure Visibility Wind Dir Wind Speed Gust Speed Precip Events Conditions
12:56 AM 36.0 °F 30.3 °F 30.9 °F 82% 30.09 in 10.0 mi WNW 6.9 mph - N/A   Clear
1:56 AM 35.1 °F 28.6 °F 30.0 °F 82% 30.09 in 10.0 mi West 8.1 mph - N/A   Clear
2:56 AM 32.0 °F 25.6 °F 28.9 °F 88% 30.11 in 10.0 mi West 6.9 mph - N/A   Clear
3:56 AM 32.0 °F 24.8 °F 28.9 °F 88% 30.12 in 10.0 mi WSW 8.1 mph - N/A   Clear
4:56 AM 32.0 °F 24.2 °F 28.0 °F 85% 30.12 in 10.0 mi West 9.2 mph - N/A   Clear
5:56 AM 32.0 °F 24.8 °F 28.0 °F 85% 30.12 in 10.0 mi West 8.1 mph - N/A   Clear
6:56 AM 30.9 °F 24.3 °F 27.0 °F 85% 30.13 in 10.0 mi West 6.9 mph - N/A   Clear
7:56 AM 28.9 °F 23.9 °F 26.1 °F 89% 30.14 in 10.0 mi West 4.6 mph - N/A   Clear
8:56 AM 34.0 °F 28.0 °F 28.0 °F 79% 30.16 in 10.0 mi West 6.9 mph - N/A   Clear
9:56 AM 36.0 °F 32.1 °F 30.0 °F 79% 30.15 in 10.0 mi WNW 4.6 mph - N/A   Clear
10:56 AM 43.0 °F 40.3 °F 30.0 °F 60% 30.14 in 10.0 mi Variable 4.6 mph - N/A   Clear
11:56 AM 48.0 °F - 28.0 °F 46% 30.12 in 10.0 mi NNW 10.4 mph - N/A   Clear
12:56 PM 50.0 °F - 26.1 °F 39% 30.11 in 10.0 mi NNW 6.9 mph - N/A   Partly Cloudy
1:56 PM 51.1 °F - 24.1 °F 35% 30.08 in 10.0 mi WNW 6.9 mph - N/A   Overcast
2:56 PM 50.0 °F - 24.1 °F 36% 30.06 in 10.0 mi West 9.2 mph - N/A   Mostly Cloudy
3:56 PM 51.1 °F - 25.0 °F 36% 30.05 in 10.0 mi WNW 11.5 mph 21.9 mph N/A   Overcast
4:56 PM 50.0 °F - 25.0 °F 38% 30.04 in 10.0 mi West 10.4 mph - N/A   Overcast
5:56 PM 48.9 °F - 26.1 °F 41% 30.04 in 10.0 mi West 13.8 mph 18.4 mph N/A   Overcast
6:56 PM 46.9 °F - 28.0 °F 48% 30.05 in 10.0 mi West 8.1 mph - N/A   Overcast
7:56 PM 44.1 °F 41.5 °F 33.1 °F 65% 30.06 in 10.0 mi West 4.6 mph - 0.00 in   Overcast
8:56 PM 39.9 °F 35.1 °F 33.1 °F 77% 30.06 in 10.0 mi West 6.9 mph - N/A   Partly Cloudy
9:56 PM 39.0 °F 34.8 °F 34.0 °F 82% 30.04 in 10.0 mi WSW 5.8 mph - N/A   Overcast
10:56 PM 37.9 °F 32.7 °F 32.0 °F 79% 30.03 in 10.0 mi WSW 6.9 mph - N/A   Mostly Cloudy
11:56 PM 39.0 °F 33.4 °F 32.0 °F 76% 30.01 in 10.0 mi West 8.1 mph - N/A   Scattered Clouds